[[{"header":{"parameterUnit":"m.s-1","parameterCategory":1,"la1":30.2991,"la2":30.254,"lo1":-89.0895,"lo2":-89.0444,"dy":0.0017,"dx":0.0017,"nx":28,"ny":28,"refTime":"2023-08-04T21:00:00:Z","depth":0,"parameterNumber":2,"parameterNumberName":"U-component_of_WINDS"},"data":[0,0,0,0,0,0,0,0,0,0,0,0,0,0,0,0,0,0,0,0,0,0,0,0,0,0,0,0,0,0,0,0,0,0,0,0,0,0,0,0,0,0,0,0,0,0,0,0,0,0,0,0,0,0,0,0,0,0,1.6969,1.6971,0,1.716,1.7162,1.7165,1.7227,1.7226,1.7226,1.7225,1.7425,1.7431,1.7437,0,0,0,0,0,0,0,0,0,0,0,0,0,1.6661,1.6666,1.6969,1.6971,1.6974,1.716,1.7163,1.7165,1.7227,1.7226,1.7225,1.7224,1.7423,1.743,1.7437,0,0,0,0,0,0,0,0,0,0,0,0,0,1.6818,1.6668,1.6968,1.7027,1.7034,1.7159,1.7163,1.7166,1.7228,1.7226,1.7225,1.7224,1.742,1.7429,1.7438,1.752,0,0,1.7466,1.747,0,0,0,0,0,0,0,0,1.6809,1.6829,1.7016,1.7023,1.7031,1.7169,1.7127,1.7285,1.7228,1.7154,1.7225,1.7223,1.7341,1.7356,1.7395,1.7529,1.7538,1.7467,1.7473,1.7476,1.7479,0,0,0,0,0,0,0,1.6798,1.6821,1.7045,1.7019,1.7028,1.7045,1.7066,1.7157,1.7252,1.7161,1.7166,1.7187,1.7345,1.7386,1.74,1.7541,1.7467,1.7475,1.7481,1.7484,1.7752,1.7754,0,0,0,0,0,0,1.6777,1.6812,1.7039,1.705,1.6915,1.7051,1.7075,1.7126,1.7252,1.7269,1.7188,1.7189,1.7371,1.739,1.7408,1.7511,1.7476,1.7485,1.749,1.7751,1.7753,1.7755,0,0,0,0,0,0,1.677,1.6796,1.7031,1.6933,1.6964,1.7058,1.7115,1.713,1.7172,1.7272,1.729,1.7213,1.7371,1.7395,1.7491,1.7519,1.7489,1.7497,1.7749,1.7751,1.7754,1.772,0,0,0,0,0,0,1.6761,1.6793,1.6824,1.6933,1.6969,1.711,1.7117,1.7135,1.7187,1.719,1.73,1.7317,1.7372,1.7477,1.75,1.7531,1.7505,1.7747,1.775,1.7753,1.7719,1.7721,1.7722,0,0,0,0,0,1.6749,1.6808,1.6826,1.6853,1.7009,1.7112,1.7132,1.7193,1.7189,1.7222,1.7286,1.7314,1.7512,1.7487,1.7513,1.7547,1.7745,1.7749,1.7753,1.7718,1.772,1.7722,0,0,0,0,0,0,1.6702,1.6823,1.6844,1.6939,1.7015,1.7122,1.7165,1.7194,1.7272,1.7272,1.7346,1.737,1.7461,1.7514,1.7483,1.7633,1.763,1.764,1.7595,1.7598,1.76,1.7585,1.7512,0,0,0,0,0,1.6702,1.6774,1.6877,1.6951,1.6988,1.7069,1.7116,1.7157,1.7238,1.727,1.7342,1.7421,1.7501,1.7553,1.7633,1.7727,1.7752,1.7764,1.7765,1.7766,1.7773,1.7827,1.7833,1.7767,1.7767,1.7767,0,0,1.6704,1.678,1.6821,1.6943,1.7006,1.708,1.7096,1.7173,1.7229,1.7283,1.7378,1.7433,1.7526,1.7622,1.7668,1.7669,1.7797,1.7771,1.7771,1.7778,1.7831,1.7838,1.7843,1.7769,1.7769,1.7768,0,0,1.6745,1.6809,1.6878,1.694,1.7035,1.7089,1.7106,1.7209,1.7247,1.7344,1.7386,1.7454,1.7591,1.7655,1.7706,1.7771,1.7799,1.7795,1.7804,1.7856,1.7861,1.7866,1.7889,1.7896,1.7802,1.7802,1.7802,0,1.6736,1.6847,1.691,1.6985,1.7038,1.7089,1.7159,1.7217,1.7334,1.7369,1.7369,1.7542,1.7608,1.7719,1.7735,1.7775,1.7796,1.7783,1.7855,1.7861,1.7866,1.7889,1.7897,1.7801,1.7801,1.7801,1.7801,0,1.6831,1.6907,1.6952,1.7061,1.712,1.7192,1.7266,1.7318,1.7353,1.7408,1.7506,1.7587,1.7684,1.7713,1.7749,1.783,1.7828,1.784,1.7839,1.787,1.7893,1.7902,1.7799,1.7799,1.78,1.78,0,0,1.6846,1.6989,1.7004,1.7055,1.7163,1.7224,1.7299,1.7393,1.7435,1.7514,1.7579,1.7694,1.7706,1.7764,1.7807,1.7853,1.7899,1.786,1.7863,1.7864,1.7993,1.7981,1.799,1.7918,1.792,1.7922,1.7984,0,1.69,1.7035,1.7094,1.7202,1.7274,1.7324,1.739,1.7464,1.7517,1.7586,1.7646,1.7726,1.7736,1.7771,1.7818,1.7883,1.7925,1.7879,1.798,1.7983,1.7954,1.8002,1.7992,1.8046,1.7994,1.7995,1.7996,0,1.6981,1.7059,1.7174,1.7273,1.7306,1.7363,1.7454,1.752,1.7605,1.7641,1.7704,1.7746,1.7828,1.7821,1.7935,1.7902,1.7947,1.7986,1.7989,1.8,1.7991,1.8014,1.8066,1.8073,1.8011,1.801,1.8009,0,1.698,1.7113,1.7199,1.7241,1.736,1.7399,1.7451,1.7535,1.7587,1.7667,1.7701,1.779,1.7838,1.7906,1.7971,1.796,1.8079,1.8078,1.8111,1.8109,1.8133,1.813,1.8191,1.8163,1.8163,1.8163,1.8162,0,1.7034,1.7102,1.72,1.7253,1.7331,1.7399,1.7475,1.7531,1.7605,1.767,1.772,1.778,1.7862,1.7933,1.7985,1.8071,1.8093,1.8124,1.8137,1.8119,1.8115,1.8149,1.8147,1.8165,1.8164,1.8164,1.8164,0,1.7045,1.7113,1.721,1.7315,1.7343,1.7396,1.7485,1.7539,1.7595,1.7677,1.77,1.7787,1.7874,1.7945,1.8059,1.8093,1.8183,1.8198,1.8153,1.816,1.8189,1.8185,1.8273,1.8288,1.825,1.825,1.825,0,1.7074,1.7127,1.7237,1.7284,1.7334,1.7409,1.7462,1.7532,1.7585,1.7687,1.7728,1.7818,1.7893,1.8029,1.8103,1.819,1.8208,1.8233,1.8221,1.8202,1.8207,1.8203,1.8209,1.8233,1.8233,1.8233,1.8233,0,1.7118,1.715,1.7224,1.7311,1.7373,1.7444,1.7518,1.7553,1.7636,1.7694,1.7782,1.784,1.7956,1.8044,1.8139,1.8194,1.8228,1.8237,1.8249,1.8231,1.8202,1.8217,1.8155,1.8234,1.8234,1.8234,1.8234,1.8234,1.7139,1.7189,1.7274,1.7355,1.7417,1.7485,1.754,1.7602,1.7676,1.7775,1.7812,1.7902,1.7987,1.8118,1.8172,1.8245,1.8249,1.8266,1.8271,1.8274,1.8271,1.8191,1.8262,1.8263,1.8263,1.8263,1.8263,0,1.7186,1.7243,1.7317,1.7417,1.7481,1.7507,1.7589,1.7641,1.7719,1.7795,1.7868,1.7969,1.8055,1.8136,1.8226,1.8269,1.8286,1.829,1.8287,1.8299,1.8263,1.8243,1.8274,1.8274,1.8274,1.8274,1.8274,1.8274,1.7217,1.7302,1.7344,1.7461,1.7518,1.7606,1.765,1.7713,1.7774,1.7884,1.7955,1.8007,1.8086,1.8182,1.8262,1.8284,1.8315,1.8314,1.8339,1.8304,1.8302,1.83,1.8281,1.832,1.832,1.837,1.837,1.8371]},{"header":{"parameterUnit":"m.s-1","parameterCategory":1,"la1":30.2991,"la2":30.254,"lo1":-89.0895,"lo2":-89.0444,"dy":0.0017,"dx":0.0017,"nx":28,"ny":28,"refTime":"2023-08-04T21:00:00:Z","depth":0,"parameterNumber":3,"parameterNumberName":"V-component_of_WINDS"},"data":[0,0,0,0,0,0,0,0,0,0,0,0,0,0,0,0,0,0,0,0,0,0,0,0,0,0,0,0,0,0,0,0,0,0,0,0,0,0,0,0,0,0,0,0,0,0,0,0,0,0,0,0,0,0,0,0,0,0,5.0086,5.0086,0,5.0083,5.0082,5.0082,5.0069,5.0069,5.0069,5.0069,5.0064,5.0064,5.0064,0,0,0,0,0,0,0,0,0,0,0,0,0,5.0083,5.0083,5.0086,5.0086,5.0086,5.0083,5.0082,5.0082,5.0069,5.0069,5.0069,5.0068,5.0064,5.0064,5.0064,0,0,0,0,0,0,0,0,0,0,0,0,0,5.0082,5.0083,5.0087,5.0079,5.0079,5.0083,5.0082,5.0082,5.007,5.0069,5.0069,5.0068,5.0064,5.0064,5.0064,5.0074,0,0,5.0065,5.0065,0,0,0,0,0,0,0,0,5.0082,5.0082,5.0081,5.008,5.0079,5.0076,5.008,5.008,5.007,5.0073,5.0069,5.0068,5.0068,5.0068,5.0068,5.0074,5.0074,5.0065,5.0065,5.0065,5.0065,0,0,0,0,0,0,0,5.0082,5.0082,5.0085,5.0081,5.008,5.0077,5.0076,5.008,5.0073,5.0073,5.0072,5.0071,5.0068,5.0068,5.0068,5.0074,5.0065,5.0065,5.0065,5.0066,5.0088,5.0089,0,0,0,0,0,0,5.0083,5.0083,5.0085,5.0085,5.008,5.0077,5.0076,5.0077,5.0073,5.0072,5.0072,5.0071,5.0068,5.0068,5.0068,5.0079,5.0065,5.0066,5.0066,5.0088,5.0088,5.0089,0,0,0,0,0,0,5.0083,5.0084,5.0085,5.0083,5.0083,5.0077,5.0079,5.0078,5.0078,5.0072,5.0071,5.0073,5.0068,5.0068,5.0073,5.0079,5.0066,5.0066,5.0087,5.0088,5.0088,5.0102,0,0,0,0,0,0,5.0083,5.0084,5.0088,5.0084,5.0084,5.009,5.0079,5.0078,5.0078,5.0077,5.0073,5.0072,5.0067,5.0073,5.0073,5.0079,5.0066,5.0087,5.0087,5.0088,5.0101,5.0103,5.0105,0,0,0,0,0,5.0083,5.0091,5.0088,5.0088,5.0088,5.0091,5.0091,5.0085,5.0079,5.0083,5.0079,5.0073,5.0079,5.0073,5.0074,5.008,5.0086,5.0087,5.0088,5.01,5.0103,5.0105,0,0,0,0,0,0,5.0096,5.0091,5.0087,5.0094,5.0093,5.0088,5.0093,5.0088,5.0088,5.0087,5.0079,5.0079,5.0085,5.0083,5.0077,5.009,5.0081,5.0082,5.009,5.0093,5.0095,5.0095,5.0066,0,0,0,0,0,5.0099,5.0102,5.0098,5.0104,5.0104,5.0099,5.01,5.0095,5.0094,5.0093,5.009,5.0089,5.0091,5.0092,5.0093,5.0101,5.01,5.0106,5.0108,5.0109,5.011,5.0115,5.0117,5.0092,5.0092,5.0092,0,0,5.0107,5.0104,5.0106,5.0107,5.0105,5.0108,5.0098,5.0102,5.0104,5.0094,5.0098,5.0096,5.0095,5.0101,5.0104,5.01,5.0117,5.0111,5.0112,5.0112,5.0116,5.0118,5.012,5.0093,5.0093,5.0093,0,0,5.0122,5.012,5.0126,5.0125,5.0123,5.012,5.0121,5.0118,5.0116,5.0121,5.0113,5.0116,5.0119,5.0118,5.0118,5.0133,5.0127,5.0134,5.0144,5.0148,5.015,5.0152,5.0157,5.0159,5.0135,5.0135,5.0135,0,5.0131,5.0135,5.0129,5.0133,5.0133,5.0125,5.0131,5.013,5.0129,5.0129,5.0125,5.0128,5.0126,5.0133,5.0137,5.0137,5.0139,5.0134,5.015,5.0152,5.0153,5.0158,5.016,5.0136,5.0136,5.0136,5.0135,0,5.0146,5.0149,5.0154,5.0153,5.0154,5.0159,5.0154,5.0156,5.0152,5.0149,5.0154,5.0152,5.0152,5.0154,5.0149,5.016,5.0157,5.0152,5.0143,5.0157,5.0161,5.0163,5.0137,5.0137,5.0136,5.0136,0,0,5.0168,5.0164,5.0166,5.0166,5.0164,5.0166,5.0171,5.0172,5.0173,5.0173,5.0177,5.018,5.0175,5.0175,5.017,5.0174,5.0187,5.0168,5.0168,5.0171,5.0198,5.0202,5.0204,5.0183,5.0183,5.0184,5.0198,0,5.0181,5.0189,5.0184,5.0192,5.0195,5.0188,5.0192,5.0191,5.0189,5.0191,5.0188,5.019,5.0184,5.0184,5.0187,5.0184,5.0192,5.0183,5.0186,5.0186,5.0186,5.0206,5.021,5.0224,5.0199,5.02,5.02,0,5.0198,5.0199,5.0207,5.0205,5.0206,5.021,5.0211,5.0213,5.0212,5.021,5.0211,5.0206,5.021,5.0202,5.0208,5.0202,5.0203,5.0202,5.0203,5.0202,5.0193,5.0206,5.0228,5.023,5.0203,5.0203,5.0202,0,5.0212,5.0216,5.0221,5.0221,5.0219,5.0222,5.0221,5.022,5.0221,5.0222,5.0222,5.0224,5.0224,5.0225,5.0221,5.0216,5.0227,5.0219,5.0226,5.0226,5.0228,5.0227,5.025,5.0229,5.0229,5.0229,5.0229,0,5.0228,5.0233,5.0228,5.0231,5.0237,5.0232,5.0238,5.0237,5.0236,5.0239,5.0233,5.0236,5.023,5.0232,5.0229,5.0234,5.0235,5.0233,5.0232,5.0233,5.0233,5.0233,5.0232,5.023,5.023,5.0229,5.0229,0,5.0244,5.0241,5.0246,5.0244,5.0244,5.0249,5.0247,5.025,5.0247,5.0251,5.0252,5.0248,5.0251,5.0247,5.0248,5.0246,5.0254,5.0251,5.0254,5.0253,5.026,5.0259,5.0282,5.0285,5.0263,5.0263,5.0263,0,5.0254,5.0258,5.0257,5.0258,5.0258,5.0261,5.0262,5.0257,5.0259,5.0259,5.0262,5.0264,5.0265,5.027,5.0267,5.0269,5.0266,5.0274,5.0266,5.0268,5.0266,5.0266,5.0266,5.0276,5.0276,5.0276,5.0276,0,5.0271,5.027,5.0272,5.0274,5.0275,5.0276,5.0277,5.0279,5.0274,5.0276,5.0279,5.028,5.0282,5.0284,5.0286,5.0285,5.028,5.0279,5.0281,5.0282,5.0283,5.0282,5.0258,5.0278,5.0278,5.0278,5.0278,5.0278,5.0284,5.0288,5.0288,5.029,5.029,5.0291,5.0294,5.0293,5.0295,5.0297,5.0294,5.0297,5.0297,5.0298,5.0298,5.03,5.0297,5.0299,5.03,5.03,5.0301,5.0283,5.0301,5.0301,5.0301,5.03,5.03,0,5.0301,5.0301,5.0304,5.0305,5.0307,5.0303,5.0304,5.0306,5.0309,5.0309,5.0311,5.0314,5.0317,5.0315,5.0316,5.0319,5.0317,5.032,5.0319,5.0319,5.0304,5.0303,5.0321,5.0321,5.0321,5.0321,5.0321,5.0321,5.031,5.0316,5.0315,5.032,5.032,5.0324,5.0324,5.0325,5.0326,5.033,5.0332,5.0331,5.033,5.0332,5.0334,5.0333,5.0334,5.0337,5.0336,5.0322,5.032,5.0318,5.0316,5.0338,5.0338,5.035,5.0351,5.0351]}]]